STARLINK-1741

Last updated on Fri Nov 06 2020 00:02:03 GMT+0000 (Coordinated Universal Time)

1 46567U 20070AM 20310.83334491 .00072069 00000-0 78631-3 0 9990 2 46567 53.0023 292.8992 0001245 84.2241 32.2516 15.62740511 5586

Satellite not in orbit